Вернуться в каталог

DELTA 1 R/B

АктивенLEO
NORAD 6237·ROCKET BODY·🇺🇸 United States

Запущен Oct 15, 1972 с Vandenberg Space Force Base

Loading…

Ближайшие Пролёты (ближайшие 24 часа)

TLE

СвежийSource: Space-Track

Эпоха: Sep 14, 2026, 20:20 UTC

1 06237U 72082C   26257.84726941 -.00000054  00000-0  16239-4 0  9995
2 06237 102.8044 114.3391 0361666 227.5239 164.1217 13.18721891594268

Отслеживайте DELTA 1 R/B в реальном времени с AllMySat

Download on the App Store